Regional Weather Roundup
Issued by NWS

Home | Current Version | Previous Version | Text Only | Print | Product List | Glossary Off
Versions: 1 2 3 4 5 6 7 8 9 10 11 12 13 14 15 16 17 18 19 20 21 22 23 24 25 26 27 28 29 30 31 32 33 34 35 36 37 38 39 40 41 42 43 44 45 46 47 48 49 50

000
ASUS45 KABQ 251401
RWRNM
NEW MEXICO REGIONAL WEATHER ROUNDUP
NATIONAL WEATHER SERVICE ALBUQUERQUE NM
800 AM MDT SAT MAR 25 2017

NOTE: "FAIR" MEANS FEW OR NO CLOUDS BELOW 12,000 FEET AGL WITH NO
       SIGNIFICANT WEATHER OR OBSTRUCTIONS TO VISION.

      THIS PRODUCT IS RELEASED AS TWO VERSIONS.  ONE VERSION NEAR
      THE TOP OF THE HOUR CONTAINING PRELIMINARY DATA FROM ALBUQUERQUE
      AND OTHER STATIONS.  A FINAL VERSION WITH ADDITIONAL DATA IS
      ISSUED ABOUT 10 MINUTES AFTER THE HOUR.

NMZ501-503-504-510>518-251500-
NORTHWEST PLATEAU/NORTHCENTRAL MOUNTAINS

CITY           SKY/WX    TMP DP  RH WIND       PRES   REMARKS
FARMINGTON     FAIR      33  25  72 E6        30.13R WCI  28
LOS ALAMOS     FAIR      40  24  52 NE3       30.20S
SANTA FE       FAIR      37  32  82 N12       30.16F WCI  29
TAOS             N/A     28  19  69 N3        30.21F
ANGEL FIRE     FOG       16  14  92 CALM      30.23S VSB 1/2

$$
NMZ402-403-502-505>509-251500-
WESTCENTRAL MOUNTAINS/SOUTHWEST MOUNTAINS

CITY           SKY/WX    TMP DP  RH WIND       PRES   REMARKS
GALLUP         FAIR      27  24  89 NE3       30.16F
GRANTS         FAIR      27  21  78 NW10G16   30.20F WCI  17
SILVER CITY    FAIR      38  25  58 NW5       30.14S WCI  35

$$
NMZ407-409-411-412-251500-
SOUTHERN DESERTS

CITY           SKY/WX    TMP DP  RH WIND       PRES   REMARKS
DEMING         FAIR      38  25  59 CALM      30.13R
LAS CRUCES     FAIR      47  26  42 E5        30.14S
HOLLOMAN AFB   FAIR      42  24  48 CALM      30.18R
ALAMOGORDO     FAIR      46  25  42 CALM      30.15R
T OR C         FAIR      47  22  37 N6        30.14R

$$
NMZ519>523-251500-
CENTRAL VALLEYS/CENTRAL HIGHLANDS

CITY           SKY/WX    TMP DP  RH WIND       PRES   REMARKS
ALBUQUERQUE    FAIR      45  22  40 N3        30.16S
DOUBLE EAGLE   MOSUNNY   36  19  51 NW6       30.17S WCI  31
MORIARTY ARPT  FAIR      27  23  85 NW3       30.18S
CLINES CORNERS FAIR      37  22  54 NW20      30.15S WCI  27
BELEN          FAIR      40  22  49 NW5       30.16S
SOCORRO        FAIR      43  24  46 NW3       30.15S

$$
NMZ524>526-539-540-251500-
SOUTHCENTRAL MOUNTAINS

CITY           SKY/WX    TMP DP  RH WIND       PRES   REMARKS
RUIDOSO        NOT AVBL

$$
NMZ527>531-251500-
NORTHEAST HIGHLANDS/NORTHEAST PLAINS

CITY           SKY/WX    TMP DP  RH WIND       PRES   REMARKS
LAS VEGAS      FAIR      33  27  78 CALM      30.14R
RATON          FAIR      28  24  85 N6        30.13R WCI  22
CLAYTON        FAIR      40  33  76 W12       30.11S WCI  33

$$
NMZ532>537-251500-
EASTCENTRAL PLAINS

CITY           SKY/WX    TMP DP  RH WIND       PRES   REMARKS
TUCUMCARI      FAIR      40  30  67 CALM      30.12S
CANNON AFB     FAIR      37  31  82 NE3       30.15R
CLOVIS AIRPORT FAIR      39  30  70 NW3       30.15R

$$
NMZ028-029-538-251500-
SOUTHEAST PLAINS

CITY           SKY/WX    TMP DP  RH WIND       PRES   REMARKS
ROSWELL        FAIR      42  26  53 SW5         N/A
ARTESIA        FAIR      45  27  49 SW8       30.18R
CARLSBAD       FAIR      49  29  46 S7        30.17R
HOBBS          SUNNY     45  30  57 SW3       30.19R


$$




USA.gov is the U.S. government's official web portal to all federal, state and local government web resources and services.